TimeEDT,TemperatureF,Dew PointF,Humidity,Sea Level PressureIn,VisibilityMPH,Wind Direction,Wind SpeedMPH,Gust SpeedMPH,PrecipitationIn,Events,Conditions,WindDirDegrees,DateUTC
12:54 AM,72.0,66.9,84,29.99,10.0,SSW,4.6,-,N/A,,Scattered Clouds,200,2013-10-05 04:54:00
1:54 AM,72.0,66.9,84,29.98,10.0,South,3.5,-,N/A,,Clear,190,2013-10-05 05:54:00
2:54 AM,70.0,66.9,90,29.99,10.0,SSW,4.6,-,N/A,,Clear,200,2013-10-05 06:54:00
3:54 AM,70.0,66.9,90,29.98,10.0,South,4.6,-,N/A,,Scattered Clouds,180,2013-10-05 07:54:00
4:02 AM,69.8,66.2,88,29.99,10.0,Calm,Calm,-,N/A,,Mostly Cloudy,0,2013-10-05 08:02:00
4:29 AM,69.8,66.2,88,29.99,10.0,Calm,Calm,-,N/A,,Scattered Clouds,0,2013-10-05 08:29:00
4:54 AM,70.0,66.0,87,29.97,10.0,Calm,Calm,-,N/A,,Mostly Cloudy,0,2013-10-05 08:54:00
5:54 AM,69.1,66.0,90,29.97,10.0,SSW,3.5,-,N/A,,Partly Cloudy,200,2013-10-05 09:54:00
6:54 AM,69.1,66.9,93,29.97,10.0,Calm,Calm,-,N/A,,Scattered Clouds,0,2013-10-05 10:54:00
7:54 AM,69.1,68.0,96,29.96,9.0,South,3.5,-,N/A,,Partly Cloudy,170,2013-10-05 11:54:00
8:13 AM,69.8,68.0,94,29.97,7.0,South,3.5,-,N/A,,Mostly Cloudy,180,2013-10-05 12:13:00
8:54 AM,70.0,68.0,93,29.96,7.0,South,3.5,-,N/A,,Mostly Cloudy,180,2013-10-05 12:54:00
9:17 AM,71.6,69.8,94,29.97,8.0,South,4.6,-,N/A,,Mostly Cloudy,180,2013-10-05 13:17:00
9:54 AM,73.0,70.0,90,29.96,10.0,South,4.6,-,N/A,,Mostly Cloudy,190,2013-10-05 13:54:00
10:15 AM,73.4,69.8,88,29.97,10.0,SSW,5.8,-,N/A,,Mostly Cloudy,200,2013-10-05 14:15:00
10:54 AM,73.9,70.0,87,29.96,10.0,Variable,3.5,-,N/A,,Mostly Cloudy,0,2013-10-05 14:54:00
11:24 AM,75.2,69.8,83,29.96,10.0,SSW,5.8,-,N/A,,Mostly Cloudy,200,2013-10-05 15:24:00
11:54 AM,77.0,71.1,82,29.95,10.0,SSW,5.8,-,N/A,,Overcast,200,2013-10-05 15:54:00
12:39 PM,75.2,69.8,83,29.95,10.0,SSW,15.0,19.6,0.00,Rain-Thunderstorm,Light Rain,200,2013-10-05 16:39:00
12:54 PM,75.9,69.1,79,29.94,10.0,South,12.7,19.6,0.00,,Overcast,190,2013-10-05 16:54:00
1:54 PM,75.9,68.0,76,29.92,10.0,South,12.7,21.9,N/A,,Mostly Cloudy,190,2013-10-05 17:54:00
2:31 PM,78.8,68.0,69,29.90,10.0,South,9.2,19.6,N/A,,Mostly Cloudy,190,2013-10-05 18:31:00
2:44 PM,77.0,68.0,74,29.89,10.0,South,11.5,18.4,N/A,,Mostly Cloudy,190,2013-10-05 18:44:00
2:54 PM,79.0,68.0,69,29.87,10.0,SSW,10.4,19.6,N/A,,Mostly Cloudy,200,2013-10-05 18:54:00
3:54 PM,77.0,68.0,74,29.88,10.0,SSW,8.1,-,N/A,,Mostly Cloudy,200,2013-10-05 19:54:00
4:06 PM,75.2,68.0,78,29.89,10.0,South,6.9,18.4,N/A,Thunderstorm,Mostly Cloudy,190,2013-10-05 20:06:00
4:22 PM,69.8,64.4,83,29.92,3.0,WSW,11.5,29.9,0.00,Rain-Thunderstorm,Heavy Thunderstorms and Rain,240,2013-10-05 20:22:00
4:25 PM,68.0,64.4,88,29.92,1.0,SW,10.4,29.9,0.00,Rain-Thunderstorm,Thunderstorms and Rain,220,2013-10-05 20:25:00
4:54 PM,66.0,64.0,93,29.89,0.8,SW,8.1,-,N/A,Rain-Thunderstorm,Heavy Rain,230,2013-10-05 20:54:00
5:00 PM,66.2,64.4,94,29.91,0.2,South,15.0,26.5,0.06,Fog-Rain-Thunderstorm,Heavy Rain,190,2013-10-05 21:00:00
5:10 PM,69.8,66.2,88,29.92,1.0,WSW,8.1,19.6,0.35,Rain-Thunderstorm,Light Thunderstorms and Rain,250,2013-10-05 21:10:00
5:19 PM,68.0,66.2,94,29.92,1.0,West,15.0,19.6,0.61,Rain-Thunderstorm,Heavy Thunderstorms and Rain,260,2013-10-05 21:19:00
5:26 PM,66.2,66.2,100,29.91,1.0,Variable,4.6,23.0,0.80,Rain-Thunderstorm,Heavy Rain,0,2013-10-05 21:26:00
5:33 PM,66.2,66.2,100,29.89,2.0,SSE,3.5,-,0.94,Rain-Thunderstorm,Light Thunderstorms and Rain,160,2013-10-05 21:33:00
5:42 PM,68.0,66.2,94,29.88,5.0,Calm,Calm,-,1.08,Rain-Thunderstorm,Thunderstorms and Rain,0,2013-10-05 21:42:00
5:54 PM,68.0,66.0,93,29.87,10.0,South,5.8,-,1.17,Rain-Thunderstorm,Light Rain,170,2013-10-05 21:54:00
6:02 PM,68.0,66.2,94,29.87,10.0,SSE,6.9,-,0.00,,Scattered Clouds,150,2013-10-05 22:02:00
6:37 PM,69.8,68.0,94,29.88,10.0,South,3.5,-,0.00,Rain,Light Rain,180,2013-10-05 22:37:00
6:54 PM,70.0,68.0,93,29.85,7.0,South,6.9,-,0.00,Rain,Light Rain,170,2013-10-05 22:54:00
7:04 PM,69.8,69.8,100,29.86,6.0,South,8.1,-,0.01,Rain,Light Rain,180,2013-10-05 23:04:00
7:27 PM,69.8,69.8,100,29.86,9.0,South,6.9,-,0.02,,Mostly Cloudy,170,2013-10-05 23:27:00
7:40 PM,69.8,69.8,100,29.86,10.0,South,6.9,-,0.02,,Overcast,180,2013-10-05 23:40:00
7:54 PM,70.0,69.1,97,29.86,10.0,South,5.8,-,0.02,,Overcast,190,2013-10-05 23:54:00
8:24 PM,69.8,66.2,88,29.88,10.0,SSW,9.2,16.1,N/A,,Mostly Cloudy,200,2013-10-06 00:24:00
8:35 PM,68.0,66.2,94,29.89,10.0,SSW,10.4,-,N/A,,Scattered Clouds,200,2013-10-06 00:35:00
8:54 PM,68.0,66.0,93,29.87,10.0,SSW,8.1,-,N/A,,Clear,200,2013-10-06 00:54:00
9:36 PM,66.2,64.4,94,29.86,10.0,Variable,5.8,-,N/A,,Mostly Cloudy,0,2013-10-06 01:36:00
9:54 PM,66.9,64.9,93,29.86,10.0,SSW,4.6,-,N/A,,Overcast,200,2013-10-06 01:54:00
10:54 PM,66.0,64.0,93,29.87,10.0,South,4.6,-,N/A,,Overcast,190,2013-10-06 02:54:00
11:54 PM,66.0,64.0,93,29.86,10.0,South,5.8,-,N/A,,Overcast,190,2013-10-06 03:54:00